KC1SQ Weather Reports


Display with metric or nautical units.
time (UTC)temp
F
wind
direction
speed
MPH
gust
MPH
rain 1hr
in
rain 24hr
in
rain mn
in
humidity
%
barometer
mb
20260902031344 64 306 0.0 0.0 0.00 0.00 0.00 67 1020.0
20260902030838 64 306 0.0 0.0 0.00 0.00 0.00 67 1020.0
20260902030332 64 306 0.0 0.0 0.00 0.00 0.00 67 1019.9
20260902025829 64 306 0.0 0.0 0.00 0.00 0.00 67 1019.8
20260902025550 64 306 0.0 0.0 0.00 0.00 0.00 67 1019.6
20260902024814 64 306 0.0 0.0 0.00 0.00 0.00 67 1019.4
20260902024531 64 306 0.0 0.0 0.00 0.00 0.00 67 1019.4
20260902023802 64 306 0.0 0.0 0.00 0.00 0.00 67 1019.5
20260902023518 65 306 0.0 0.0 0.00 0.00 0.00 66 1019.5
20260902022750 65 306 0.0 0.0 0.00 0.00 0.00 66 1019.6
20260902022244 65 306 0.0 0.0 0.00 0.00 0.00 66 1019.5
20260902021738 65 306 0.0 0.0 0.00 0.00 0.00 66 1019.7
20260902021231 65 306 0.0 0.0 0.00 0.00 0.00 66 1019.7
20260902020943 65 306 0.0 0.0 0.00 0.00 0.00 66 1019.7
20260902020220 65 306 0.0 0.0 0.00 0.00 0.00 66 1019.7
20260902015714 65 306 0.0 0.0 0.00 0.00 0.00 66 1019.6
20260902015208 65 306 0.0 0.0 0.00 0.00 0.00 66 1019.5
20260902014702 65 306 0.0 0.0 0.00 0.00 0.00 66 1019.5
20260902014157 65 306 0.0 0.0 0.00 0.00 0.00 66 1019.6
20260902013650 65 306 0.0 0.0 0.00 0.00 0.00 66 1019.6
20260902013406 65 306 0.0 0.0 0.00 0.00 0.00 66 1019.7
20260902012639 65 306 0.0 0.0 0.00 0.00 0.00 66 1019.8
20260902012132 65 306 0.0 0.0 0.00 0.00 0.00 66 1019.8
20260902011851 65 306 0.0 0.0 0.00 0.00 0.00 66 1019.6
20260902011120 65 306 0.0 0.0 0.00 0.00 0.00 66 1019.7
20260902010614 65 306 0.0 0.0 0.00 0.00 0.00 66 1019.6
20260902010334 65 306 0.0 0.0 0.00 0.00 0.00 66 1019.7
20260902005602 65 306 0.0 0.0 0.00 0.00 0.00 66 1019.5
20260902005321 65 306 0.0 0.0 0.00 0.00 0.00 66 1019.5
20260902004550 65 306 0.0 0.0 0.00 0.00 0.00 66 1019.4
20260902004044 65 306 0.0 0.0 0.00 0.00 0.00 66 1019.4
20260902003803 65 306 0.0 0.0 0.00 0.00 0.00 66 1019.4
20260902003032 65 306 0.0 0.0 0.00 0.00 0.00 66 1019.3
20260902002526 66 306 0.0 0.0 0.00 0.00 0.00 66 1019.3
20260902002020 66 306 0.0 0.0 0.00 0.00 0.00 66 1019.3
20260902001736 66 306 0.0 0.0 0.00 0.00 0.00 66 1019.3
20260902001008 66 305 0.0 0.0 0.00 0.00 0.00 66 1019.2
20260902000503 66 305 0.0 0.0 0.00 0.00 0.00 66 1019.1
20260901235956 66 313 0.0 0.0 0.00 0.00 0.00 66 1019.1
20260901235450 66 249 0.0 0.0 0.00 0.00 0.00 66 1019.1
20260901235206 66 249 0.0 0.0 0.00 0.00 0.00 66 1019.0
20260901234438 66 249 0.0 0.0 0.00 0.00 0.00 66 1019.0
20260901233933 66 249 0.0 0.0 0.00 0.00 0.00 66 1019.0
20260901233436 66 249 0.0 0.0 0.00 0.00 0.00 66 1019.0
20260901232935 66 249 0.0 0.0 0.00 0.00 0.00 66 1019.0
20260901232433 67 249 0.0 0.0 0.00 0.00 0.00 66 1018.9
20260901231930 67 249 0.0 0.0 0.00 0.00 0.00 66 1019.0
20260901231428 67 249 0.0 0.0 0.00 0.00 0.00 65 1019.1
20260901230930 67 249 0.0 0.0 0.00 0.00 0.00 65 1019.1
20260901230428 67 249 0.0 0.0 0.00 0.00 0.00 65 1018.9
20260901225925 67 249 0.0 0.0 0.00 0.00 0.00 65 1018.9
20260901225427 67 249 0.0 0.0 0.00 0.00 0.00 65 1018.9
20260901224925 67 249 0.0 0.0 0.00 0.00 0.00 65 1018.9
20260901224423 68 249 0.0 0.0 0.00 0.00 0.00 64 1018.7
20260901223924 68 250 0.0 0.0 0.00 0.00 0.00 64 1018.7
20260901223645 68 249 0.0 0.0 0.00 0.00 0.00 63 1018.7
20260901222920 69 249 0.0 0.0 0.00 0.00 0.00 63 1018.6
20260901222421 69 250 0.0 0.0 0.00 0.00 0.00 63 1018.7
20260901221921 69 249 0.0 0.0 0.00 0.00 0.00 62 1018.7
20260901221639 69 249 0.0 0.0 0.00 0.00 0.00 62 1018.7
20260901220920 69 250 0.0 0.0 0.00 0.00 0.00 62 1018.7
20260901220414 70 249 0.0 0.0 0.00 0.00 0.00 61 1018.6
20260901215908 70 250 0.0 0.0 0.00 0.00 0.00 61 1018.7
20260901215402 70 251 0.0 0.0 0.00 0.00 0.00 60 1018.7
20260901214855 71 355 0.0 0.0 0.00 0.00 0.00 60 1018.5
20260901214350 71 355 0.0 0.0 0.00 0.00 0.00 59 1018.5
20260901213844 72 355 0.0 0.0 0.00 0.00 0.00 58 1018.4
20260901213344 72 355 0.0 0.0 0.00 0.00 0.00 57 1018.2
20260901212844 73 355 0.0 0.0 0.00 0.00 0.00 58 1018.2
20260901212343 73 355 0.0 0.0 0.00 0.00 0.00 58 1018.3
20260901211842 73 5 0.0 0.0 0.00 0.00 0.00 57 1018.2
20260901211340 73 5 0.0 0.0 0.00 0.00 0.00 57 1018.1
20260901210838 73 5 0.0 0.0 0.00 0.00 0.00 58 1018.1
20260901210338 73 5 0.0 0.0 0.00 0.00 0.00 58 1018.1
20260901205838 73 5 0.0 0.0 0.00 0.00 0.00 58 1017.9
20260901205337 72 0 0.0 0.0 0.00 0.00 0.00 58 1018.0
20260901204836 72 315 0.0 0.0 0.00 0.00 0.00 57 1017.9
20260901204604 73 315 0.0 0.0 0.00 0.00 0.00 57 1018.0
20260901203838 73 315 0.0 0.0 0.00 0.00 0.00 56 1017.9
20260901203336 73 315 0.0 0.0 0.00 0.00 0.00 55 1017.8
20260901202837 74 315 0.0 0.0 0.00 0.00 0.00 54 1017.8
20260901202338 74 315 0.0 0.0 0.00 0.00 0.00 53 1017.6
20260901201836 75 315 0.0 0.0 0.00 0.00 0.00 52 1017.6
20260901201334 76 311 0.0 0.0 0.00 0.00 0.00 51 1017.5
20260901200833 76 311 0.0 0.0 0.00 0.00 0.00 50 1017.5
20260901200330 77 311 0.0 0.0 0.00 0.00 0.00 48 1017.5
20260901195831 77 263 0.0 0.0 0.00 0.00 0.00 47 1017.5
20260901195333 78 232 0.0 0.0 0.00 0.00 0.00 46 1017.5
20260901194831 78 232 0.0 0.0 0.00 0.00 0.00 44 1017.6
20260901194331 78 234 0.0 0.0 0.00 0.00 0.00 42 1017.6
20260901193831 77 234 0.0 0.0 0.00 0.00 0.00 43 1017.6
20260901193333 76 234 0.0 0.0 0.00 0.00 0.00 45 1017.5
20260901192828 76 234 0.0 0.0 0.00 0.00 0.00 44 1017.6
20260901192327 75 234 0.0 0.0 0.00 0.00 0.00 44 1017.7
20260901191827 75 234 0.0 0.0 0.00 0.00 0.00 45 1017.8
20260901191327 75 234 0.0 0.0 0.00 0.00 0.00 46 1017.8
20260901190827 75 234 0.0 0.0 0.00 0.00 0.00 45 1017.9
20260901190327 75 234 0.0 0.0 0.00 0.00 0.00 43 1017.8
20260901185826 75 234 0.0 0.0 0.00 0.00 0.00 45 1017.8
20260901185545 75 234 0.0 0.0 0.00 0.00 0.00 47 1018.0
20260901184828 75 234 0.0 0.0 0.00 0.00 0.00 46 1018.0
20260901184553 75 234 0.0 0.0 0.00 0.00 0.00 44 1017.9
20260901183823 75 234 0.0 0.0 0.00 0.00 0.00 45 1017.9
20260901183324 75 234 0.0 0.0 0.00 0.00 0.00 44 1017.8
20260901182821 75 234 0.0 0.0 0.00 0.00 0.00 46 1017.9
20260901182320 75 234 0.0 0.0 0.00 0.00 0.00 43 1017.9
20260901182043 75 234 0.0 0.0 0.00 0.00 0.00 43 1017.7
20260901181320 75 234 0.0 0.0 0.00 0.00 0.00 43 1017.8
20260901180816 76 234 0.0 0.0 0.00 0.00 0.00 44 1017.7
20260901180315 76 234 0.0 0.0 0.00 0.00 0.00 42 1017.6
20260901175814 76 234 0.0 0.0 0.00 0.00 0.00 41 1017.7
20260901175314 76 234 0.0 0.0 0.00 0.00 0.00 43 1017.7
20260901174814 76 234 0.0 0.0 0.00 0.00 0.00 42 1017.8
20260901174311 76 234 0.0 0.0 0.00 0.00 0.00 42 1017.7
20260901173811 76 234 0.0 0.0 0.00 0.00 0.00 44 1017.7
20260901173310 76 234 0.0 0.0 0.00 0.00 0.00 43 1017.6
20260901172808 76 234 0.0 0.0 0.00 0.00 0.00 44 1017.7
20260901172532 75 235 0.0 0.0 0.00 0.00 0.00 44 1017.7
20260901172029 75 235 0.0 0.0 0.00 0.00 0.00 43 1017.8
20260901171301 75 235 0.0 0.0 0.00 0.00 0.00 45 1017.8
20260901170756 74 234 0.0 0.0 0.00 0.00 0.00 48 1017.8
20260901170249 73 234 0.0 0.0 0.00 0.00 0.00 49 1017.8
20260901165743 72 234 0.0 0.0 0.00 0.00 0.00 51 1017.8
20260901165237 72 234 0.0 0.0 0.00 0.00 0.00 50 1017.9
20260901164954 71 234 0.0 0.0 0.00 0.00 0.00 50 1018.0
20260901164225 71 234 0.0 0.0 0.00 0.00 0.00 50 1017.9
20260901163719 71 234 0.0 0.0 0.00 0.00 0.00 50 1018.0
20260901163436 71 235 0.0 0.0 0.00 0.00 0.00 51 1018.1
20260901162707 70 235 0.0 0.0 0.00 0.00 0.00 52 1018.1
20260901162201 70 235 0.0 0.0 0.00 0.00 0.00 52 1018.1
20260901161917 70 235 0.0 0.0 0.00 0.00 0.00 52 1018.1
20260901161149 70 236 0.0 0.0 0.00 0.00 0.00 54 1018.1
20260901160643 70 236 0.0 0.0 0.00 0.00 0.00 53 1018.2
20260901160354 69 236 0.0 0.0 0.00 0.00 0.00 53 1018.3
20260901155632 69 236 0.0 0.0 0.00 0.00 0.00 54 1018.3
20260901155609 69 236 0.0 0.0 0.00 0.00 0.00 54 1018.3
20260901154619 69 236 0.0 0.0 0.00 0.00 0.00 54 1018.2
20260901154113 69 236 0.0 0.0 0.00 0.00 0.00 54 1018.2
20260901153607 68 236 0.0 0.0 0.00 0.00 0.00 56 1018.1
20260901153101 68 236 0.0 0.0 0.00 0.00 0.00 56 1018.3
20260901152556 68 236 0.0 0.0 0.00 0.00 0.00 57 1018.3
20260901152049 67 236 0.0 0.0 0.00 0.00 0.00 56 1018.2
20260901151543 67 236 0.0 0.0 0.00 0.00 0.00 59 1018.1
20260901151037 66 236 0.0 0.0 0.00 0.00 0.00 58 1018.1
20260901150531 66 236 0.0 0.0 0.00 0.00 0.00 59 1018.0
20260901150026 66 236 0.0 0.0 0.00 0.00 0.00 58 1017.9
20260901145743 66 236 0.0 0.0 0.00 0.00 0.00 58 1017.7
20260901145013 66 236 0.0 0.0 0.00 0.00 0.00 58 1017.9
20260901144509 65 236 0.0 0.0 0.00 0.00 0.00 59 1017.8
20260901144001 65 236 0.0 0.0 0.00 0.00 0.00 60 1017.8
20260901143717 64 236 0.0 0.0 0.00 0.00 0.00 61 1017.8
20260901142950 64 236 0.0 0.0 0.00 0.00 0.00 63 1017.8
20260901142443 64 236 0.0 0.0 0.00 0.00 0.00 64 1018.0
20260901141937 64 236 0.0 0.0 0.00 0.00 0.00 64 1018.2
20260901141650 63 236 0.0 0.0 0.00 0.00 0.00 64 1018.3
20260901140925 63 236 0.0 0.0 0.00 0.00 0.00 64 1018.2
20260901140419 63 236 0.0 0.0 0.00 0.00 0.00 64 1018.2
20260901135913 63 236 0.0 0.0 0.00 0.00 0.00 65 1018.4
20260901135407 62 236 0.0 0.0 0.00 0.00 0.00 66 1018.5
20260901135127 62 236 0.0 0.0 0.00 0.00 0.00 65 1018.4
20260901134354 62 236 0.0 0.0 0.00 0.00 0.00 66 1018.3
20260901133849 62 236 0.0 0.0 0.00 0.00 0.00 66 1018.3
20260901133343 62 236 0.0 0.0 0.00 0.00 0.00 67 1018.3
20260901132837 62 236 0.0 0.0 0.00 0.00 0.00 67 1018.3
20260901132330 61 236 0.0 0.0 0.00 0.00 0.00 67 1018.5
20260901131825 61 236 0.0 0.0 0.00 0.00 0.00 68 1018.5
20260901131319 61 236 0.0 0.0 0.00 0.00 0.00 68 1018.4
20260901130812 61 236 0.0 0.0 0.00 0.00 0.00 68 1018.5
20260901130307 61 236 0.0 0.0 0.00 0.00 0.00 68 1018.5
20260901130030 61 236 0.0 0.0 0.00 0.00 0.00 68 1018.4
20260901125251 60 236 0.0 0.0 0.00 0.00 0.00 69 1018.4
20260901125001 60 236 0.0 0.0 0.00 0.00 0.00 69 1018.6
20260901124239 60 236 0.0 0.0 0.00 0.00 0.00 70 1018.6
20260901123733 60 236 0.0 0.0 0.00 0.00 0.00 70 1018.6
20260901123227 60 236 0.0 0.0 0.00 0.00 0.00 74 1018.6
20260901122721 59 236 0.0 0.0 0.00 0.00 0.00 74 1018.7
20260901122215 59 236 0.0 0.0 0.00 0.00 0.00 74 1018.5
20260901121709 59 236 0.0 0.0 0.00 0.00 0.00 74 1018.5
20260901121422 58 236 0.0 0.0 0.00 0.00 0.00 74 1018.3
20260901120657 58 236 0.0 0.0 0.00 0.00 0.00 74 1018.4
20260901120151 58 236 0.0 0.0 0.00 0.00 0.00 75 1018.4
20260901115645 58 236 0.0 0.0 0.00 0.00 0.00 75 1018.4
20260901115140 58 236 0.0 0.0 0.00 0.00 0.00 75 1018.4
20260901114633 58 236 0.0 0.0 0.00 0.00 0.00 76 1018.3
20260901114133 58 236 0.0 0.0 0.00 0.00 0.00 78 1018.3
20260901113633 57 236 0.0 0.0 0.00 0.00 0.00 78 1018.2
20260901113133 57 236 0.0 0.0 0.00 0.00 0.00 78 1018.1
20260901112631 57 236 0.0 0.0 0.00 0.00 0.00 78 1018.1
20260901112133 57 236 0.0 0.0 0.00 0.00 0.00 78 1018.1
20260901111633 56 236 0.0 0.0 0.00 0.00 0.00 78 1018.0
20260901111132 56 236 0.0 0.0 0.00 0.00 0.00 79 1018.0
20260901110632 56 236 0.0 0.0 0.00 0.00 0.00 79 1018.0
20260901110131 56 236 0.0 0.0 0.00 0.00 0.00 78 1017.9
20260901110116 55 236 0.0 0.0 0.00 0.00 0.00 74 1017.8
20260901105131 55 236 0.0 0.0 0.00 0.00 0.00 72 1017.8
20260901104629 55 236 0.0 0.0 0.00 0.00 0.00 72 1017.9
20260901104354 55 236 0.0 0.0 0.00 0.00 0.00 72 1017.7
20260901103626 54 236 0.0 0.0 0.00 0.00 0.00 71 1017.8
20260901103127 54 236 0.0 0.0 0.00 0.00 0.00 71 1017.7
20260901102626 54 236 0.0 0.0 0.00 0.00 0.00 72 1017.6
20260901102123 54 236 0.0 0.0 0.00 0.00 0.00 72 1017.6
20260901101623 54 236 0.0 0.0 0.00 0.00 0.00 72 1017.5
20260901101124 54 236 0.0 0.0 0.00 0.00 0.00 72 1017.6
20260901100620 54 236 0.0 0.0 0.00 0.00 0.00 72 1017.4
20260901100119 54 236 0.0 0.0 0.00 0.00 0.00 72 1017.3
20260901095619 54 236 0.0 0.0 0.00 0.00 0.00 71 1017.4
20260901095118 54 236 0.0 0.0 0.00 0.00 0.00 72 1017.5
20260901094618 54 236 0.0 0.0 0.00 0.00 0.00 72 1017.6
20260901094119 54 236 0.0 0.0 0.00 0.00 0.00 71 1017.6
20260901093619 54 236 0.0 0.0 0.00 0.00 0.00 72 1017.6
20260901093118 54 236 0.0 0.0 0.00 0.00 0.00 72 1017.5
20260901092619 54 236 0.0 0.0 0.00 0.00 0.00 72 1017.5
20260901092116 54 236 0.0 0.0 0.00 0.00 0.00 72 1017.4
20260901091613 54 236 0.0 0.0 0.00 0.00 0.00 72 1017.5
20260901091113 54 236 0.0 0.0 0.00 0.00 0.00 72 1017.6
20260901090615 54 236 0.0 0.0 0.00 0.00 0.00 72 1017.5
20260901090115 54 236 0.0 0.0 0.00 0.00 0.00 72 1017.6
20260901085614 54 236 0.0 0.0 0.00 0.00 0.00 71 1017.5
20260901085113 54 236 0.0 0.0 0.00 0.00 0.00 71 1017.6
20260901084615 54 236 0.0 0.0 0.00 0.00 0.00 71 1017.6
20260901084115 54 236 0.0 0.0 0.00 0.00 0.00 71 1017.5
20260901083832 53 236 0.0 0.0 0.00 0.00 0.00 71 1017.5
20260901083115 53 236 0.0 0.0 0.00 0.00 0.00 71 1017.5
20260901082613 53 236 0.0 0.0 0.00 0.00 0.00 71 1017.6
20260901082115 53 236 0.0 0.0 0.00 0.00 0.00 70 1017.5
20260901081615 53 236 0.0 0.0 0.00 0.00 0.00 70 1017.6
20260901081115 53 236 0.0 0.0 0.00 0.00 0.00 70 1017.6
20260901080838 53 236 0.0 0.0 0.00 0.00 0.00 69 1017.7
20260901080115 53 236 0.0 0.0 0.00 0.00 0.00 69 1017.6
20260901075614 53 236 0.0 0.0 0.00 0.00 0.00 69 1017.6
20260901075108 53 236 0.0 0.0 0.00 0.00 0.00 68 1017.6
20260901074835 53 236 0.0 0.0 0.00 0.00 0.00 68 1017.5
20260901074055 54 236 0.0 0.0 0.00 0.00 0.00 68 1017.6
20260901073820 54 236 0.0 0.0 0.00 0.00 0.00 68 1017.7
20260901073044 54 236 0.0 0.0 0.00 0.00 0.00 68 1017.7
20260901072537 54 236 0.0 0.0 0.00 0.00 0.00 68 1017.8
20260901072032 54 236 0.0 0.0 0.00 0.00 0.00 68 1017.8
20260901071527 54 236 0.0 0.0 0.00 0.00 0.00 68 1017.8
20260901071021 54 236 0.0 0.0 0.00 0.00 0.00 68 1017.9
20260901070739 54 236 0.0 0.0 0.00 0.00 0.00 68 1018.0
20260901070008 54 236 0.0 0.0 0.00 0.00 0.00 68 1017.9
20260901065724 54 236 0.0 0.0 0.00 0.00 0.00 68 1017.9
20260901064956 54 236 0.0 0.0 0.00 0.00 0.00 68 1017.8
20260901064450 54 236 0.0 0.0 0.00 0.00 0.00 68 1017.7
20260901063944 54 236 0.0 0.0 0.00 0.00 0.00 68 1017.8
20260901063439 54 236 0.0 0.0 0.00 0.00 0.00 68 1017.8
20260901062932 54 236 0.0 0.0 0.00 0.00 0.00 68 1017.7
20260901062426 54 236 0.0 0.0 0.00 0.00 0.00 67 1017.8
20260901061920 54 236 0.0 0.0 0.00 0.00 0.00 67 1017.9
20260901061414 55 236 0.0 0.0 0.00 0.00 0.00 68 1018.0
20260901060908 55 236 0.0 0.0 0.00 0.00 0.00 68 1018.1
20260901060402 55 236 0.0 0.0 0.00 0.00 0.00 68 1018.1
20260901055856 55 236 0.0 0.0 0.00 0.00 0.00 68 1018.0
20260901055350 55 236 0.0 0.0 0.00 0.00 0.00 68 1018.1
20260901055110 55 236 0.0 0.0 0.00 0.00 0.00 68 1018.0
20260901054338 55 236 0.0 0.0 0.00 0.00 0.00 68 1018.1
20260901054051 55 236 0.0 0.0 0.00 0.00 0.00 68 1018.0
20260901053326 55 236 0.0 0.0 0.00 0.00 0.00 68 1018.0
20260901052820 55 236 0.0 0.0 0.00 0.00 0.00 67 1018.0
20260901052314 55 236 0.0 0.0 0.00 0.00 0.00 67 1018.1
20260901052028 55 236 0.0 0.0 0.00 0.00 0.00 67 1017.9
20260901051302 55 236 0.0 0.0 0.00 0.00 0.00 67 1017.9
20260901050756 55 236 0.0 0.0 0.00 0.00 0.00 67 1017.9
20260901050521 55 236 0.0 0.0 0.00 0.00 0.00 67 1018.0
20260901045744 55 236 0.0 0.0 0.00 0.00 0.00 67 1017.9
20260901045238 55 236 0.0 0.0 0.00 0.00 0.00 67 1017.8
20260901044732 55 236 0.0 0.0 0.00 0.00 0.00 67 1017.9
20260901044226 55 236 0.0 0.0 0.00 0.00 0.00 67 1017.9
20260901043721 56 236 0.0 0.0 0.00 0.00 0.00 67 1018.0
20260901043214 56 236 0.0 0.0 0.00 0.00 0.00 67 1017.9
20260901042708 56 236 0.0 0.0 0.00 0.00 0.00 66 1017.8
20260901042202 56 236 0.0 0.0 0.00 0.00 0.00 66 1017.8
20260901041656 56 236 0.0 0.0 0.00 0.00 0.00 66 1017.8
20260901041150 56 236 0.0 0.0 0.00 0.00 0.00 66 1017.8
20260901040644 56 236 0.0 0.0 0.00 0.00 0.00 66 1017.8
20260901040139 56 236 0.0 0.0 0.00 0.00 0.00 66 1017.8
20260901035632 56 236 0.0 0.0 0.00 0.00 0.00 66 1017.9
20260901035126 56 236 0.0 0.0 0.00 0.00 0.00 66 1017.9
20260901034846 56 236 0.0 0.0 0.00 0.00 0.00 66 1017.9
20260901034114 56 236 0.0 0.0 0.00 0.00 0.00 66 1018.0
20260901033607 56 236 0.0 0.0 0.00 0.00 0.00 66 1018.0
20260901033102 56 236 0.0 0.0 0.00 0.00 0.00 66 1018.0
20260901032556 57 236 0.0 0.0 0.00 0.00 0.00 66 1017.9
20260901032050 57 236 0.0 0.0 0.00 0.00 0.00 66 1017.9
20260901031810 57 236 0.0 0.0 0.00 0.00 0.00 66 1017.8